Вернуться в каталог

THORAD AGENA D DEB

АктивенPO
NORAD 4855·DEBRIS·🇺🇸 United States

Запущен Apr 8, 1970 с Vandenberg Space Force Base

Loading…

Ближайшие Пролёты (ближайшие 24 часа)

TLE

СвежийSource: Space-Track

Эпоха: Sep 13, 2026, 20:54 UTC

1 04855U 70025EK  26256.87097979  .00000424  00000-0  49579-3 0  9990
2 04855  99.9577 213.8529 0013997 186.6244 230.0668 13.74902053809163

Отслеживайте THORAD AGENA D DEB в реальном времени с AllMySat

Download on the App Store